Location: Spondin
(51.8528°N, 111.6118°W)
Time: 05:58:22
(UTC+00:00)

X-37B - Pass Details

Date: 12 October 2023
Orbit: 277 x 277 km, 45.0° (Epoch: 01 November)

Event Time Altitude Azimuth Distance (km) Brightness Sun altitude
Rises 02:34:57 0° 243° (WSW) 1,914 4.9 -18.3°
Reaches altitude 10° 02:37:14 10° 221° (SW) 1,102 3.2 -18.6°
Enters shadow 02:37:51 13° 208° (SSW) 941 2.7 -18.7°
